Time,TemperatureF,DewpointF,PressureIn,WindDirection,WindDirectionDegrees,WindSpeedMPH,WindSpeedGustMPH,Humidity,HourlyPrecipIn,Conditions,Clouds,dailyrainin,SolarRadiationWatts/m^2,SoftwareType,DateUTC
2013-06-23 00:00:00,80.3,67.0,29.62,SSW,194,9.0,16.0,64,0.00,,SKC,0.00,0.00,VWS V14.01,2013-06-23 05:00:00,
2013-06-23 00:01:00,80.3,67.0,29.62,SE,134,9.0,16.0,64,0.00,,---,0.00,0.00,VWS V14.00,2013-06-23 05:01:00,
2013-06-23 00:06:00,80.2,67.4,29.61,ESE,120,8.0,13.0,65,0.00,,---,0.00,0.00,VWS V14.00,2013-06-23 05:06:00,
2013-06-23 00:10:00,80.0,67.2,29.61,SE,137,8.0,15.0,65,0.00,,SKC,0.00,0.00,VWS V14.01,2013-06-23 05:10:00,
2013-06-23 00:11:00,80.0,67.2,29.61,SE,137,10.0,15.0,65,0.00,,---,0.00,0.00,VWS V14.00,2013-06-23 05:11:00,
2013-06-23 00:16:00,79.8,67.4,29.61,SSE,156,7.0,13.0,66,0.00,,---,0.00,0.00,VWS V14.00,2013-06-23 05:16:00,
2013-06-23 00:20:00,79.7,67.8,29.61,SSE,155,16.0,16.0,67,0.00,,SKC,0.00,0.00,VWS V14.01,2013-06-23 05:20:00,
2013-06-23 00:21:00,79.7,67.8,29.61,SSE,155,16.0,16.0,67,0.00,,---,0.00,0.00,VWS V14.00,2013-06-23 05:21:00,
2013-06-23 00:26:00,79.6,67.7,29.61,ESE,121,8.0,15.0,67,0.00,,---,0.00,0.00,VWS V14.00,2013-06-23 05:26:00,
2013-06-23 00:30:00,79.4,67.9,29.61,SSE,147,4.0,15.0,68,0.00,,SKC,0.00,0.00,VWS V14.01,2013-06-23 05:30:00,
2013-06-23 00:31:00,79.4,67.9,29.61,SSE,147,5.0,15.0,68,0.00,,---,0.00,0.00,VWS V14.00,2013-06-23 05:31:00,
2013-06-23 00:36:00,79.3,67.8,29.61,SE,132,6.0,11.0,68,0.00,,---,0.00,0.00,VWS V14.00,2013-06-23 05:36:00,
2013-06-23 00:40:00,79.1,67.6,29.61,SE,125,2.0,14.0,68,0.00,,SKC,0.00,0.00,VWS V14.01,2013-06-23 05:40:00,
2013-06-23 00:41:00,79.1,67.6,29.61,SE,125,6.0,14.0,68,0.00,,---,0.00,0.00,VWS V14.00,2013-06-23 05:41:00,
2013-06-23 00:46:00,79.0,67.6,29.60,SE,142,6.0,14.0,68,0.00,,---,0.00,0.00,VWS V14.00,2013-06-23 05:46:00,
2013-06-23 00:50:00,78.9,67.4,29.61,SE,140,4.0,16.0,68,0.00,,SKC,0.00,0.00,VWS V14.01,2013-06-23 05:50:00,
2013-06-23 00:51:00,78.9,67.4,29.61,SE,140,6.0,16.0,68,0.00,,---,0.00,0.00,VWS V14.00,2013-06-23 05:51:00,
2013-06-23 00:56:00,78.8,67.4,29.60,SSE,158,8.0,16.0,68,0.00,,---,0.00,0.00,VWS V14.00,2013-06-23 05:56:00,
2013-06-23 01:00:00,78.7,67.7,29.61,SE,132,6.0,16.0,69,0.00,,SKC,0.00,0.00,VWS V14.01,2013-06-23 06:00:00,
2013-06-23 01:01:00,78.7,67.7,29.61,SE,133,8.0,16.0,69,0.00,,---,0.00,0.00,VWS V14.00,2013-06-23 06:01:00,
2013-06-23 01:06:00,78.6,67.6,29.61,SE,144,5.0,14.0,69,0.00,,---,0.00,0.00,VWS V14.00,2013-06-23 06:06:00,
2013-06-23 01:10:00,78.5,67.5,29.61,SE,146,9.0,15.0,69,0.00,,SKC,0.00,0.00,VWS V14.01,2013-06-23 06:10:00,
2013-06-23 01:11:00,78.5,67.5,29.61,SSE,147,8.0,15.0,69,0.00,,---,0.00,0.00,VWS V14.00,2013-06-23 06:11:00,
2013-06-23 01:16:00,78.4,67.4,29.61,SE,132,4.0,10.0,69,0.00,,---,0.00,0.00,VWS V14.00,2013-06-23 06:16:00,
2013-06-23 01:20:00,78.2,67.6,29.60,SE,135,6.0,13.0,70,0.00,,SKC,0.00,0.00,VWS V14.01,2013-06-23 06:20:00,
2013-06-23 01:21:00,78.2,67.6,29.60,SE,136,6.0,13.0,70,0.00,,---,0.00,0.00,VWS V14.00,2013-06-23 06:21:00,
2013-06-23 01:26:00,78.1,67.5,29.61,SE,127,6.0,13.0,70,0.00,,---,0.00,0.00,VWS V14.00,2013-06-23 06:26:00,
2013-06-23 01:30:00,78.0,67.4,29.61,SE,140,7.0,13.0,70,0.00,,SKC,0.00,0.00,VWS V14.01,2013-06-23 06:30:00,
2013-06-23 01:31:00,78.0,67.4,29.61,SE,140,10.0,13.0,70,0.00,,---,0.00,0.00,VWS V14.00,2013-06-23 06:31:00,
2013-06-23 01:36:00,77.9,67.3,29.61,SSE,150,13.0,15.0,70,0.00,,---,0.00,0.00,VWS V14.00,2013-06-23 06:36:00,
2013-06-23 01:40:00,77.8,67.7,29.61,ESE,123,7.0,15.0,71,0.00,,SKC,0.00,0.00,VWS V14.01,2013-06-23 06:40:00,
2013-06-23 01:41:00,77.8,67.7,29.61,ESE,121,6.0,15.0,71,0.00,,---,0.00,0.00,VWS V14.00,2013-06-23 06:41:00,
2013-06-23 01:46:00,77.6,67.5,29.61,ESE,121,7.0,14.0,71,0.00,,---,0.00,0.00,VWS V14.00,2013-06-23 06:46:00,
2013-06-23 01:50:00,77.5,67.8,29.61,SE,130,8.0,18.0,72,0.00,,SKC,0.00,0.00,VWS V14.01,2013-06-23 06:50:00,
2013-06-23 01:51:00,77.5,67.8,29.61,SSE,154,17.0,17.0,72,0.00,,---,0.00,0.00,VWS V14.00,2013-06-23 06:51:00,
2013-06-23 01:56:00,77.3,67.6,29.61,ESE,122,6.0,14.0,72,0.00,,---,0.00,0.00,VWS V14.00,2013-06-23 06:56:00,
2013-06-23 02:00:00,77.2,67.9,29.60,SE,142,8.0,15.0,73,0.00,,SKC,0.00,0.00,VWS V14.01,2013-06-23 07:00:00,
2013-06-23 02:01:00,77.2,67.9,29.60,SE,137,7.0,15.0,73,0.00,,---,0.00,0.00,VWS V14.00,2013-06-23 07:01:00,
2013-06-23 02:06:00,77.1,68.2,29.60,SSE,150,9.0,12.0,74,0.00,,---,0.00,0.00,VWS V14.00,2013-06-23 07:06:00,
2013-06-23 02:10:00,76.9,68.4,29.60,SSE,149,7.0,18.0,75,0.00,,SKC,0.00,0.00,VWS V14.01,2013-06-23 07:10:00,
2013-06-23 02:11:00,76.9,68.4,29.60,SE,142,11.0,18.0,75,0.00,,---,0.00,0.00,VWS V14.00,2013-06-23 07:11:00,
2013-06-23 02:16:00,76.8,68.3,29.59,SE,144,6.0,14.0,75,0.00,,---,0.00,0.00,VWS V14.00,2013-06-23 07:16:00,
2013-06-23 02:20:00,76.6,68.5,29.59,ESE,109,13.0,14.0,76,0.00,,SKC,0.00,0.00,VWS V14.01,2013-06-23 07:20:00,
2013-06-23 02:21:00,76.7,68.6,29.59,SSE,152,14.0,14.0,76,0.00,,---,0.00,0.00,VWS V14.00,2013-06-23 07:21:00,
2013-06-23 02:26:00,76.5,68.4,29.59,SSE,148,6.0,12.0,76,0.00,,---,0.00,0.00,VWS V14.00,2013-06-23 07:26:00,
2013-06-23 02:30:00,76.4,68.3,29.59,SE,138,10.0,14.0,76,0.00,,SKC,0.00,0.00,VWS V14.01,2013-06-23 07:30:00,
2013-06-23 02:31:00,76.4,68.3,29.59,SE,141,10.0,12.0,76,0.00,,---,0.00,0.00,VWS V14.00,2013-06-23 07:31:00,
2013-06-23 02:36:00,76.3,68.6,29.59,SE,140,8.0,11.0,77,0.00,,---,0.00,0.00,VWS V14.00,2013-06-23 07:36:00,
2013-06-23 02:40:00,76.2,68.5,29.59,SE,131,5.0,13.0,77,0.00,,SKC,0.00,0.00,VWS V14.01,2013-06-23 07:40:00,
2013-06-23 02:41:00,76.2,68.5,29.59,SE,130,8.0,13.0,77,0.00,,---,0.00,0.00,VWS V14.00,2013-06-23 07:41:00,
2013-06-23 02:46:00,76.0,68.3,29.59,SE,134,12.0,12.0,77,0.00,,---,0.00,0.00,VWS V14.00,2013-06-23 07:46:00,
2013-06-23 02:50:00,75.9,68.6,29.58,SE,144,7.0,12.0,78,0.00,,---,0.00,0.00,VWS V14.00,2013-06-23 07:50:00,
2013-06-23 02:55:00,75.8,68.8,29.58,SE,132,8.0,13.0,79,0.00,,---,0.00,0.00,VWS V14.00,2013-06-23 07:55:00,
2013-06-23 03:00:00,75.6,68.6,29.58,ESE,102,11.0,17.0,79,0.00,,---,0.00,0.00,VWS V14.00,2013-06-23 08:00:00,
2013-06-23 03:05:00,75.6,69.0,29.58,SSE,157,2.0,15.0,80,0.00,,---,0.00,0.00,VWS V14.00,2013-06-23 08:05:00,
2013-06-23 03:10:00,75.4,68.8,29.58,ESE,121,7.0,15.0,80,0.00,,---,0.00,0.00,VWS V14.00,2013-06-23 08:10:00,
2013-06-23 03:15:00,75.3,68.7,29.58,ESE,121,5.0,11.0,80,0.00,,---,0.00,0.00,VWS V14.00,2013-06-23 08:15:00,
2013-06-23 03:20:00,75.1,68.5,29.58,SSE,148,8.0,13.0,80,0.00,,---,0.00,0.00,VWS V14.00,2013-06-23 08:20:00,
2013-06-23 03:25:00,75.1,68.5,29.58,ESE,118,9.0,13.0,80,0.00,,---,0.00,0.00,VWS V14.00,2013-06-23 08:25:00,
2013-06-23 03:30:00,74.9,67.9,29.58,SSE,148,7.0,13.0,79,0.00,,---,0.00,0.00,VWS V14.00,2013-06-23 08:30:00,
2013-06-23 03:35:00,74.9,67.9,29.58,SSE,159,14.0,14.0,79,0.00,,---,0.00,0.00,VWS V14.00,2013-06-23 08:35:00,
2013-06-23 03:40:00,74.7,67.8,29.58,SE,136,5.0,14.0,79,0.00,,---,0.00,0.00,VWS V14.00,2013-06-23 08:40:00,
2013-06-23 03:45:00,74.6,67.3,29.58,SE,130,5.0,14.0,78,0.00,,---,0.00,0.00,VWS V14.00,2013-06-23 08:45:00,
2013-06-23 03:50:00,74.6,67.3,29.58,SSE,148,7.0,14.0,78,0.00,,---,0.00,0.00,VWS V14.00,2013-06-23 08:50:00,
2013-06-23 03:55:00,74.5,67.2,29.58,SE,136,7.0,10.0,78,0.00,,---,0.00,0.00,VWS V14.00,2013-06-23 08:55:00,
2013-06-23 04:00:00,74.4,67.1,29.58,SE,132,9.0,13.0,78,0.00,,---,0.00,0.00,VWS V14.00,2013-06-23 09:00:00,
2013-06-23 04:05:00,74.4,66.7,29.58,SE,140,5.0,12.0,77,0.00,,---,0.00,0.00,VWS V14.00,2013-06-23 09:05:00,
2013-06-23 04:10:00,74.3,66.6,29.58,SE,134,4.0,12.0,77,0.00,,---,0.00,0.00,VWS V14.00,2013-06-23 09:10:00,
2013-06-23 04:15:00,74.2,66.9,29.59,ESE,105,6.0,9.0,78,0.00,,---,0.00,0.00,VWS V14.00,2013-06-23 09:15:00,
2013-06-23 04:20:00,74.1,66.8,29.58,ESE,114,4.0,9.0,78,0.00,,---,0.00,0.00,VWS V14.00,2013-06-23 09:20:00,
2013-06-23 04:25:00,74.0,66.7,29.59,SE,137,6.0,14.0,78,0.00,,---,0.00,0.00,VWS V14.00,2013-06-23 09:25:00,
2013-06-23 04:30:00,73.9,66.6,29.59,ESE,121,5.0,15.0,78,0.00,,---,0.00,0.00,VWS V14.00,2013-06-23 09:30:00,
2013-06-23 04:35:00,73.8,66.9,29.59,SE,134,5.0,12.0,79,0.00,,---,0.00,0.00,VWS V14.00,2013-06-23 09:35:00,
2013-06-23 04:40:00,73.7,66.8,29.59,SE,132,14.0,14.0,79,0.00,,---,0.00,0.00,VWS V14.00,2013-06-23 09:40:00,
2013-06-23 04:45:00,73.6,66.7,29.59,ESE,123,12.0,14.0,79,0.00,,---,0.00,0.00,VWS V14.00,2013-06-23 09:45:00,
2013-06-23 04:50:00,73.5,66.6,29.59,SE,135,6.0,14.0,79,0.00,,---,0.00,0.00,VWS V14.00,2013-06-23 09:50:00,
2013-06-23 04:55:00,73.3,66.4,29.59,East,101,12.0,12.0,79,0.00,,---,0.00,0.00,VWS V14.00,2013-06-23 09:55:00,
2013-06-23 05:00:00,73.2,66.3,29.58,SE,138,8.0,12.0,79,0.00,,---,0.00,0.00,VWS V14.00,2013-06-23 10:00:00,
2013-06-23 05:05:00,73.1,66.2,29.59,SE,139,5.0,10.0,79,0.00,,---,0.00,0.00,VWS V14.00,2013-06-23 10:05:00,
2013-06-23 05:10:00,73.0,66.1,29.58,SE,128,6.0,14.0,79,0.00,,---,0.00,0.00,VWS V14.00,2013-06-23 10:10:00,
2013-06-23 05:15:00,72.9,66.4,29.59,SE,133,8.0,12.0,80,0.00,,---,0.00,0.00,VWS V14.00,2013-06-23 10:15:00,
2013-06-23 05:20:00,72.8,66.3,29.59,SE,140,7.0,12.0,80,0.00,,---,0.00,0.00,VWS V14.00,2013-06-23 10:20:00,
2013-06-23 05:25:00,72.6,66.1,29.59,SSE,147,7.0,17.0,80,0.00,,---,0.00,0.00,VWS V14.00,2013-06-23 10:25:00,
2013-06-23 05:30:00,72.6,66.1,29.58,SE,144,5.0,17.0,80,0.00,,---,0.00,0.00,VWS V14.00,2013-06-23 10:30:00,
2013-06-23 05:35:00,72.5,66.0,29.59,ESE,119,8.0,11.0,80,0.00,,---,0.00,0.00,VWS V14.00,2013-06-23 10:35:00,
2013-06-23 05:40:00,72.4,66.2,29.58,SE,134,8.0,12.0,81,0.00,,---,0.00,0.00,VWS V14.00,2013-06-23 10:40:00,
2013-06-23 05:45:00,72.3,66.2,29.59,SE,134,4.0,9.0,81,0.00,,---,0.00,0.00,VWS V14.00,2013-06-23 10:45:00,
2013-06-23 05:50:00,72.2,66.1,29.59,South,180,6.0,12.0,81,0.00,,---,0.00,0.00,VWS V14.00,2013-06-23 10:50:00,
2013-06-23 05:55:00,72.1,66.3,29.58,SE,138,5.0,9.0,82,0.00,,---,0.00,0.00,VWS V14.00,2013-06-23 10:55:00,
2013-06-23 06:00:00,72.0,66.2,29.58,SE,138,6.0,10.0,82,0.00,,---,0.00,0.00,VWS V14.00,2013-06-23 11:00:00,
2013-06-23 06:05:00,71.9,66.1,29.59,SE,133,7.0,14.0,82,0.00,,---,0.00,0.00,VWS V14.00,2013-06-23 11:05:00,
2013-06-23 06:10:00,71.9,66.5,29.59,SE,143,9.0,14.0,83,0.00,,---,0.00,0.00,VWS V14.00,2013-06-23 11:10:00,
2013-06-23 06:15:00,71.8,66.4,29.59,SE,136,12.0,13.0,83,0.00,,---,0.00,0.00,VWS V14.00,2013-06-23 11:15:00,
2013-06-23 06:20:00,71.8,66.7,29.59,SSW,196,9.0,13.0,84,0.00,,---,0.00,0.00,VWS V14.00,2013-06-23 11:20:00,
2013-06-23 06:25:00,71.8,66.7,29.60,SE,130,12.0,12.0,84,0.00,,---,0.00,0.00,VWS V14.00,2013-06-23 11:25:00,
2013-06-23 06:30:00,71.8,66.7,29.60,SSE,159,6.0,14.0,84,0.00,,---,0.00,11.00,VWS V14.00,2013-06-23 11:30:00,
2013-06-23 06:35:00,71.8,67.1,29.60,SE,137,9.0,10.0,85,0.00,,---,0.00,11.00,VWS V14.00,2013-06-23 11:35:00,
2013-06-23 06:40:00,71.8,67.1,29.60,SE,130,12.0,14.0,85,0.00,,---,0.00,12.00,VWS V14.00,2013-06-23 11:40:00,
2013-06-23 06:45:00,71.8,67.1,29.60,SE,137,7.0,15.0,85,0.00,,---,0.00,18.00,VWS V14.00,2013-06-23 11:45:00,
2013-06-23 06:50:00,71.8,67.1,29.60,SE,141,6.0,18.0,85,0.00,,---,0.00,23.00,VWS V14.00,2013-06-23 11:50:00,
2013-06-23 06:55:00,71.8,67.1,29.60,SE,136,9.0,13.0,85,0.00,,---,0.00,30.00,VWS V14.00,2013-06-23 11:55:00,
2013-06-23 07:00:00,71.8,67.1,29.60,SE,132,11.0,14.0,85,0.00,,---,0.00,39.00,VWS V14.00,2013-06-23 12:00:00,
2013-06-23 07:05:00,71.9,67.2,29.60,SSE,156,8.0,14.0,85,0.00,,---,0.00,46.00,VWS V14.00,2013-06-23 12:05:00,
2013-06-23 07:10:00,71.9,67.2,29.60,SE,128,5.0,14.0,85,0.00,,---,0.00,53.00,VWS V14.00,2013-06-23 12:10:00,
2013-06-23 07:15:00,72.0,67.2,29.60,SSE,155,6.0,11.0,85,0.00,,---,0.00,53.00,VWS V14.00,2013-06-23 12:15:00,
2013-06-23 07:20:00,72.1,67.3,29.61,SE,135,9.0,11.0,85,0.00,,---,0.00,56.00,VWS V14.00,2013-06-23 12:20:00,
2013-06-23 07:25:00,72.1,67.3,29.60,SE,144,4.0,11.0,85,0.00,,---,0.00,62.00,VWS V14.00,2013-06-23 12:25:00,
2013-06-23 07:30:00,72.2,67.4,29.61,SE,138,8.0,11.0,85,0.00,,---,0.00,69.00,VWS V14.00,2013-06-23 12:30:00,
2013-06-23 07:35:00,72.3,67.5,29.60,SE,134,5.0,13.0,85,0.00,,---,0.00,77.00,VWS V14.00,2013-06-23 12:35:00,
2013-06-23 07:40:00,72.4,67.6,29.60,SSE,150,12.0,14.0,85,0.00,,---,0.00,83.00,VWS V14.00,2013-06-23 12:40:00,
2013-06-23 07:45:00,72.4,67.6,29.60,SSE,163,7.0,11.0,85,0.00,,---,0.00,90.00,VWS V14.00,2013-06-23 12:45:00,
2013-06-23 07:50:00,72.5,67.4,29.61,SSE,159,4.0,12.0,84,0.00,,---,0.00,98.00,VWS V14.00,2013-06-23 12:50:00,
2013-06-23 07:55:00,72.7,67.6,29.61,SE,141,8.0,9.0,84,0.00,,---,0.00,102.00,VWS V14.00,2013-06-23 12:55:00,
2013-06-23 08:00:00,72.8,67.7,29.61,SE,140,5.0,10.0,84,0.00,,---,0.00,105.00,VWS V14.00,2013-06-23 13:00:00,
2013-06-23 08:05:00,72.9,67.4,29.61,SE,141,9.0,13.0,83,0.00,,---,0.00,109.00,VWS V14.00,2013-06-23 13:05:00,
2013-06-23 08:10:00,73.1,67.6,29.62,SSE,151,7.0,13.0,83,0.00,,---,0.00,141.00,VWS V14.00,2013-06-23 13:10:00,
2013-06-23 08:15:00,73.3,67.5,29.62,SSE,150,2.0,9.0,82,0.00,,---,0.00,163.00,VWS V14.00,2013-06-23 13:15:00,
2013-06-23 08:20:00,73.5,67.3,29.62,SE,144,5.0,9.0,81,0.00,,---,0.00,185.00,VWS V14.00,2013-06-23 13:20:00,
2013-06-23 08:25:00,73.8,67.6,29.62,SSE,165,5.0,10.0,81,0.00,,---,0.00,234.00,VWS V14.00,2013-06-23 13:25:00,
2013-06-23 08:30:00,74.2,67.3,29.62,ESE,122,9.0,13.0,79,0.00,,---,0.00,271.00,VWS V14.00,2013-06-23 13:30:00,
2013-06-23 08:35:00,74.6,67.3,29.62,SSE,167,7.0,11.0,78,0.00,,---,0.00,294.00,VWS V14.00,2013-06-23 13:35:00,
2013-06-23 08:40:00,74.9,67.2,29.62,SSE,156,6.0,12.0,77,0.00,,---,0.00,323.00,VWS V14.00,2013-06-23 13:40:00,
2013-06-23 08:45:00,75.3,67.2,29.62,SSE,153,9.0,10.0,76,0.00,,---,0.00,352.00,VWS V14.00,2013-06-23 13:45:00,
2013-06-23 08:50:00,75.8,66.9,29.62,SSE,157,8.0,12.0,74,0.00,,---,0.00,369.00,VWS V14.00,2013-06-23 13:50:00,
2013-06-23 08:55:00,76.1,66.4,29.62,SSE,151,9.0,16.0,72,0.00,,---,0.00,390.00,VWS V14.00,2013-06-23 13:55:00,
2013-06-23 09:00:00,76.5,66.0,29.63,SE,144,6.0,16.0,70,0.00,,---,0.00,408.00,VWS V14.00,2013-06-23 14:00:00,
2013-06-23 09:05:00,76.8,65.9,29.63,SSE,147,7.0,20.0,69,0.00,,---,0.00,424.00,VWS V14.00,2013-06-23 14:05:00,
2013-06-23 09:10:00,77.2,65.8,29.62,SE,146,12.0,20.0,68,0.00,,---,0.00,446.00,VWS V14.00,2013-06-23 14:10:00,
2013-06-23 09:15:00,77.5,66.1,29.63,SSE,155,2.0,12.0,68,0.00,,---,0.00,468.00,VWS V14.00,2013-06-23 14:15:00,
2013-06-23 09:20:00,77.9,65.6,29.62,SE,137,7.0,14.0,66,0.00,,---,0.00,490.00,VWS V14.00,2013-06-23 14:20:00,
2013-06-23 09:25:00,78.3,65.6,29.62,SSE,165,5.0,10.0,65,0.00,,---,0.00,510.00,VWS V14.00,2013-06-23 14:25:00,
2013-06-23 09:30:00,78.7,65.5,29.62,SSE,158,11.0,15.0,64,0.00,,---,0.00,534.00,VWS V14.00,2013-06-23 14:30:00,
2013-06-23 09:35:00,79.1,65.0,29.63,ESE,114,8.0,18.0,62,0.00,,---,0.00,545.00,VWS V14.00,2013-06-23 14:35:00,
2013-06-23 09:40:00,79.5,64.4,29.63,SSE,160,5.0,18.0,60,0.00,,---,0.00,566.00,VWS V14.00,2013-06-23 14:40:00,
2013-06-23 09:45:00,80.0,62.9,29.63,SSE,162,10.0,15.0,56,0.00,,---,0.00,517.00,VWS V14.00,2013-06-23 14:45:00,
2013-06-23 09:50:00,80.4,63.3,29.63,South,176,11.0,16.0,56,0.00,,---,0.00,606.00,VWS V14.00,2013-06-23 14:50:00,
2013-06-23 09:55:00,80.7,63.0,29.63,SSW,205,6.0,15.0,55,0.00,,---,0.00,587.00,VWS V14.00,2013-06-23 14:55:00,
2013-06-23 10:00:00,81.1,62.9,29.63,SE,126,8.0,17.0,54,0.00,,---,0.00,527.00,VWS V14.00,2013-06-23 15:00:00,
2013-06-23 10:05:00,81.4,62.6,29.63,SSE,160,10.0,16.0,53,0.00,,---,0.00,559.00,VWS V14.00,2013-06-23 15:05:00,
2013-06-23 10:10:00,81.6,62.8,29.63,SE,138,14.0,16.0,53,0.00,,---,0.00,492.00,VWS V14.00,2013-06-23 15:10:00,
2013-06-23 10:15:00,81.8,63.0,29.63,SE,135,10.0,14.0,53,0.00,,---,0.00,638.00,VWS V14.00,2013-06-23 15:15:00,
2013-06-23 10:20:00,82.2,63.4,29.64,South,173,11.0,19.0,53,0.00,,---,0.00,664.00,VWS V14.00,2013-06-23 15:20:00,
2013-06-23 10:25:00,82.3,62.9,29.63,SE,126,9.0,20.0,52,0.00,,---,0.00,605.00,VWS V14.00,2013-06-23 15:25:00,
2013-06-23 10:30:00,82.5,63.1,29.63,SE,142,8.0,23.0,52,0.00,,---,0.00,694.00,VWS V14.00,2013-06-23 15:30:00,
2013-06-23 10:35:00,82.9,62.9,29.63,SSE,155,8.0,13.0,51,0.00,,---,0.00,705.00,VWS V14.00,2013-06-23 15:35:00,
2013-06-23 10:40:00,83.2,62.7,29.63,SSE,168,9.0,17.0,50,0.00,,---,0.00,693.00,VWS V14.00,2013-06-23 15:40:00,
2013-06-23 10:45:00,83.4,62.8,29.64,South,178,9.0,11.0,50,0.00,,---,0.00,694.00,VWS V14.00,2013-06-23 15:45:00,
2013-06-23 10:50:00,83.6,63.0,29.64,SSE,161,5.0,11.0,50,0.00,,---,0.00,714.00,VWS V14.00,2013-06-23 15:50:00,
2013-06-23 10:55:00,84.1,63.5,29.64,South,182,4.0,10.0,50,0.00,,---,0.00,772.00,VWS V14.00,2013-06-23 15:55:00,
2013-06-23 11:00:00,84.5,63.8,29.64,South,171,5.0,12.0,50,0.00,,---,0.00,835.00,VWS V14.00,2013-06-23 16:00:00,
2013-06-23 11:05:00,84.8,63.5,29.64,SSW,209,4.0,11.0,49,0.00,,---,0.00,684.00,VWS V14.00,2013-06-23 16:05:00,
2013-06-23 11:10:00,84.8,64.1,29.64,ESE,121,6.0,13.0,50,0.00,,---,0.00,860.00,VWS V14.00,2013-06-23 16:10:00,
2013-06-23 11:15:00,84.9,64.2,29.64,SSE,153,9.0,15.0,50,0.00,,---,0.00,770.00,VWS V14.00,2013-06-23 16:15:00,
2013-06-23 11:20:00,84.7,64.0,29.64,SSE,156,9.0,15.0,50,0.00,,---,0.00,596.00,VWS V14.00,2013-06-23 16:20:00,
2013-06-23 11:25:00,84.9,64.2,29.64,SSE,161,6.0,10.0,50,0.00,,---,0.00,784.00,VWS V14.00,2013-06-23 16:25:00,
2013-06-23 11:30:00,85.3,65.1,29.63,South,183,2.0,10.0,51,0.00,,---,0.00,693.00,VWS V14.00,2013-06-23 16:30:00,
2013-06-23 11:35:00,85.7,64.4,29.64,SSW,204,6.0,10.0,49,0.00,,---,0.00,661.00,VWS V14.00,2013-06-23 16:35:00,
2013-06-23 11:40:00,85.6,64.8,29.64,SE,142,7.0,13.0,50,0.00,,---,0.00,612.00,VWS V14.00,2013-06-23 16:40:00,
2013-06-23 11:45:00,85.2,63.9,29.63,SSE,151,4.0,14.0,49,0.00,,---,0.00,561.00,VWS V14.00,2013-06-23 16:45:00,
2013-06-23 11:50:00,85.1,64.4,29.64,South,169,7.0,14.0,50,0.00,,---,0.00,469.00,VWS V14.00,2013-06-23 16:50:00,
2013-06-23 11:55:00,84.7,64.0,29.64,SE,140,9.0,12.0,50,0.00,,---,0.00,485.00,VWS V14.00,2013-06-23 16:55:00,
2013-06-23 11:57:00,84.6,63.9,29.63,SSE,159,8.0,12.0,50,0.00,,---,0.00,468.00,VWS V14.00,2013-06-23 16:57:00,
2013-06-23 12:00:00,84.2,64.1,29.63,SE,141,12.0,14.0,51,0.00,,SKC,0.00,545.00,VWS V14.01,2013-06-23 17:00:00,
2013-06-23 12:03:00,84.2,64.1,29.63,SSE,150,8.0,13.0,51,0.00,,---,0.00,640.00,VWS V14.00,2013-06-23 17:03:00,
2013-06-23 12:08:00,84.3,64.8,29.63,SSE,150,9.0,14.0,52,0.00,,---,0.00,659.00,VWS V14.00,2013-06-23 17:08:00,
2013-06-23 12:10:00,84.6,65.1,29.63,SSE,165,2.0,15.0,52,0.00,,SKC,0.00,803.00,VWS V14.01,2013-06-23 17:10:00,
2013-06-23 12:13:00,84.8,65.2,29.63,SSE,163,8.0,9.0,52,0.00,,---,0.00,705.00,VWS V14.00,2013-06-23 17:13:00,
2013-06-23 12:18:00,85.3,65.1,29.63,SE,124,7.0,14.0,51,0.00,,---,0.00,687.00,VWS V14.00,2013-06-23 17:18:00,
2013-06-23 12:20:00,85.2,65.1,29.63,SE,140,14.0,17.0,51,0.00,,SKC,0.00,550.00,VWS V14.01,2013-06-23 17:20:00,
2013-06-23 12:23:00,85.2,65.1,29.63,SE,128,6.0,13.0,51,0.00,,---,0.00,550.00,VWS V14.00,2013-06-23 17:23:00,
2013-06-23 12:28:00,85.2,65.6,29.63,SE,146,4.0,13.0,52,0.00,,---,0.00,621.00,VWS V14.00,2013-06-23 17:28:00,
2013-06-23 12:30:00,85.2,65.6,29.63,SE,145,6.0,13.0,52,0.00,,SKC,0.00,742.00,VWS V14.01,2013-06-23 17:30:00,
2013-06-23 12:33:00,85.3,65.1,29.63,SE,140,6.0,9.0,51,0.00,,---,0.00,742.00,VWS V14.00,2013-06-23 17:33:00,
2013-06-23 12:38:00,85.7,65.5,29.63,ESE,120,6.0,13.0,51,0.00,,---,0.00,543.00,VWS V14.00,2013-06-23 17:38:00,
2013-06-23 12:40:00,86.0,65.2,29.63,SSE,168,6.0,13.0,50,0.00,,SKC,0.00,564.00,VWS V14.01,2013-06-23 17:40:00,
2013-06-23 12:43:00,86.0,64.6,29.63,ESE,121,11.0,11.0,49,0.00,,---,0.00,529.00,VWS V14.00,2013-06-23 17:43:00,
2013-06-23 12:48:00,85.9,65.1,29.62,SSE,154,8.0,13.0,50,0.00,,---,0.00,608.00,VWS V14.00,2013-06-23 17:48:00,
2013-06-23 12:50:00,86.2,64.8,29.62,ESE,109,9.0,14.0,49,0.00,,SKC,0.00,800.00,VWS V14.01,2013-06-23 17:50:00,
2013-06-23 12:53:00,86.3,64.9,29.62,SSE,149,6.0,18.0,49,0.00,,---,0.00,951.00,VWS V14.00,2013-06-23 17:53:00,
2013-06-23 12:58:00,86.9,66.0,29.62,SE,140,10.0,18.0,50,0.00,,---,0.00,923.00,VWS V14.00,2013-06-23 17:58:00,
2013-06-23 13:00:00,87.1,65.6,29.62,SSE,147,8.0,18.0,49,0.00,,SKC,0.00,891.00,VWS V14.01,2013-06-23 18:00:00,
2013-06-23 13:03:00,87.1,65.6,29.62,ESE,113,8.0,16.0,49,0.00,,---,0.00,912.00,VWS V14.00,2013-06-23 18:03:00,
2013-06-23 13:08:00,87.0,66.1,29.62,SSE,151,5.0,17.0,50,0.00,,---,0.00,835.00,VWS V14.00,2013-06-23 18:08:00,
2013-06-23 13:10:00,86.9,66.0,29.61,ESE,114,9.0,17.0,50,0.00,,SKC,0.00,682.00,VWS V14.01,2013-06-23 18:10:00,
2013-06-23 13:13:00,86.9,66.0,29.62,SE,136,14.0,14.0,50,0.00,,---,0.00,698.00,VWS V14.00,2013-06-23 18:13:00,
2013-06-23 13:18:00,86.7,66.4,29.62,SE,142,10.0,14.0,51,0.00,,---,0.00,858.00,VWS V14.00,2013-06-23 18:18:00,
2013-06-23 13:20:00,86.8,66.5,29.61,SSE,157,6.0,15.0,51,0.00,,SKC,0.00,896.00,VWS V14.01,2013-06-23 18:20:00,
2013-06-23 13:23:00,86.8,66.5,29.62,ESE,111,12.0,13.0,51,0.00,,---,0.00,888.00,VWS V14.00,2013-06-23 18:23:00,
2013-06-23 13:28:00,86.9,66.6,29.61,ESE,117,16.0,16.0,51,0.00,,---,0.00,923.00,VWS V14.00,2013-06-23 18:28:00,
2013-06-23 13:30:00,87.1,66.8,29.62,ESE,113,11.0,16.0,51,0.00,,SKC,0.00,1116.00,VWS V14.01,2013-06-23 18:30:00,
2013-06-23 13:33:00,87.3,67.0,29.62,SSE,153,8.0,14.0,51,0.00,,---,0.00,1120.00,VWS V14.00,2013-06-23 18:33:00,
2013-06-23 13:38:00,88.2,66.1,29.62,SE,138,8.0,21.0,48,0.00,,---,0.00,932.00,VWS V14.00,2013-06-23 18:38:00,
2013-06-23 13:40:00,88.1,66.6,29.61,SE,144,9.0,21.0,49,0.00,,SKC,0.00,766.00,VWS V14.01,2013-06-23 18:40:00,
2013-06-23 13:43:00,88.2,66.7,29.61,SE,142,9.0,15.0,49,0.00,,---,0.00,707.00,VWS V14.00,2013-06-23 18:43:00,
2013-06-23 13:48:00,87.9,66.9,29.61,SE,146,14.0,15.0,50,0.00,,---,0.00,650.00,VWS V14.00,2013-06-23 18:48:00,
2013-06-23 13:50:00,87.8,66.9,29.61,ESE,117,8.0,15.0,50,0.00,,SKC,0.00,696.00,VWS V14.01,2013-06-23 18:50:00,
2013-06-23 13:53:00,87.7,66.8,29.61,ESE,117,8.0,12.0,50,0.00,,---,0.00,696.00,VWS V14.00,2013-06-23 18:53:00,
2013-06-23 13:58:00,87.3,67.0,29.61,ESE,108,8.0,17.0,51,0.00,,---,0.00,847.00,VWS V14.00,2013-06-23 18:58:00,
2013-06-23 14:00:00,87.6,66.7,29.61,South,180,10.0,19.0,50,0.00,,SKC,0.00,956.00,VWS V14.01,2013-06-23 19:00:00,
2013-06-23 14:03:00,87.7,66.8,29.60,ESE,121,12.0,13.0,50,0.00,,---,0.00,1000.00,VWS V14.00,2013-06-23 19:03:00,
2013-06-23 14:08:00,88.2,66.7,29.60,ESE,110,5.0,15.0,49,0.00,,---,0.00,993.00,VWS V14.00,2013-06-23 19:08:00,
2013-06-23 14:10:00,88.1,66.6,29.60,SE,134,11.0,15.0,49,0.00,,SKC,0.00,751.00,VWS V14.01,2013-06-23 19:10:00,
2013-06-23 14:13:00,88.1,66.6,29.60,ESE,123,8.0,13.0,49,0.00,,---,0.00,670.00,VWS V14.00,2013-06-23 19:13:00,
2013-06-23 14:18:00,88.3,66.7,29.61,SE,140,11.0,15.0,49,0.00,,---,0.00,812.00,VWS V14.00,2013-06-23 19:18:00,
2013-06-23 14:20:00,88.3,66.7,29.60,SSE,150,10.0,21.0,49,0.00,,SKC,0.00,912.00,VWS V14.01,2013-06-23 19:20:00,
2013-06-23 14:23:00,88.3,66.1,29.60,SE,142,12.0,14.0,48,0.00,,---,0.00,926.00,VWS V14.00,2013-06-23 19:23:00,
2013-06-23 14:28:00,88.5,66.3,29.60,SE,140,15.0,18.0,48,0.00,,---,0.00,956.00,VWS V14.00,2013-06-23 19:28:00,
2013-06-23 14:30:00,88.8,66.0,29.59,SE,134,6.0,21.0,47,0.00,,SKC,0.00,1088.00,VWS V14.01,2013-06-23 19:30:00,
2013-06-23 14:33:00,88.8,66.0,29.59,SSE,152,9.0,16.0,47,0.00,,---,0.00,1044.00,VWS V14.00,2013-06-23 19:33:00,
2013-06-23 14:38:00,89.5,66.0,29.59,SE,143,9.0,16.0,46,0.00,,---,0.00,1067.00,VWS V14.00,2013-06-23 19:38:00,
2013-06-23 14:40:00,90.2,65.4,29.59,SE,126,7.0,18.0,44,0.00,,SKC,0.00,1058.00,VWS V14.01,2013-06-23 19:40:00,
2013-06-23 14:43:00,90.3,65.4,29.59,ESE,117,8.0,14.0,44,0.00,,---,0.00,1020.00,VWS V14.00,2013-06-23 19:43:00,
2013-06-23 14:48:00,90.8,64.6,29.58,ESE,117,16.0,19.0,42,0.00,,---,0.00,979.00,VWS V14.00,2013-06-23 19:48:00,
2013-06-23 14:50:00,90.8,64.6,29.58,SE,135,10.0,20.0,42,0.00,,SKC,0.00,1044.00,VWS V14.01,2013-06-23 19:50:00,
2013-06-23 14:53:00,90.9,64.0,29.58,SE,146,10.0,15.0,41,0.00,,---,0.00,1049.00,VWS V14.00,2013-06-23 19:53:00,
2013-06-23 14:58:00,91.3,63.6,29.57,SE,130,18.0,22.0,40,0.00,,---,0.00,1032.00,VWS V14.00,2013-06-23 19:58:00,
2013-06-23 15:00:00,91.3,62.2,29.57,SE,138,13.0,22.0,38,0.00,,SKC,0.00,1056.00,VWS V14.01,2013-06-23 20:00:00,
2013-06-23 15:03:00,91.3,62.2,29.57,SE,129,7.0,15.0,38,0.00,,---,0.00,889.00,VWS V14.00,2013-06-23 20:03:00,
2013-06-23 15:08:00,91.3,62.9,29.58,ESE,113,11.0,18.0,39,0.00,,---,0.00,805.00,VWS V14.00,2013-06-23 20:08:00,
2013-06-23 15:10:00,91.0,61.9,29.58,SE,134,12.0,19.0,38,0.00,,SKC,0.00,1009.00,VWS V14.01,2013-06-23 20:10:00,
2013-06-23 15:13:00,90.9,62.5,29.57,SSE,159,15.0,18.0,39,0.00,,---,0.00,872.00,VWS V14.00,2013-06-23 20:13:00,
2013-06-23 15:18:00,90.6,63.0,29.57,SSE,151,14.0,20.0,40,0.00,,---,0.00,983.00,VWS V14.00,2013-06-23 20:18:00,
2013-06-23 15:20:00,90.7,63.1,29.57,SE,132,8.0,20.0,40,0.00,,SKC,0.00,988.00,VWS V14.01,2013-06-23 20:20:00,
2013-06-23 15:23:00,90.9,64.0,29.57,SE,136,5.0,13.0,41,0.00,,---,0.00,991.00,VWS V14.00,2013-06-23 20:23:00,
2013-06-23 15:28:00,91.4,63.7,29.58,SE,127,12.0,20.0,40,0.00,,---,0.00,668.00,VWS V14.00,2013-06-23 20:28:00,
2013-06-23 15:30:00,91.5,63.1,29.57,SSE,148,11.0,20.0,39,0.00,,SKC,0.00,900.00,VWS V14.01,2013-06-23 20:30:00,
2013-06-23 15:33:00,91.5,63.8,29.57,SE,138,12.0,14.0,40,0.00,,---,0.00,824.00,VWS V14.00,2013-06-23 20:33:00,
2013-06-23 15:38:00,91.7,64.0,29.56,East,98,11.0,16.0,40,0.00,,---,0.00,993.00,VWS V14.00,2013-06-23 20:38:00,
2013-06-23 15:40:00,91.8,64.1,29.57,SSE,150,13.0,22.0,40,0.00,,SKC,0.00,977.00,VWS V14.01,2013-06-23 20:40:00,
2013-06-23 15:43:00,91.8,64.1,29.56,SE,143,10.0,12.0,40,0.00,,---,0.00,993.00,VWS V14.00,2013-06-23 20:43:00,
2013-06-23 15:48:00,92.1,63.6,29.57,SE,138,11.0,21.0,39,0.00,,---,0.00,965.00,VWS V14.00,2013-06-23 20:48:00,
2013-06-23 15:50:00,92.0,63.5,29.56,SE,146,6.0,21.0,39,0.00,,SKC,0.00,592.00,VWS V14.01,2013-06-23 20:50:00,
2013-06-23 15:53:00,92.0,62.8,29.57,SE,129,15.0,19.0,38,0.00,,---,0.00,585.00,VWS V14.00,2013-06-23 20:53:00,
2013-06-23 15:58:00,91.8,63.3,29.56,ESE,120,12.0,19.0,39,0.00,,---,0.00,575.00,VWS V14.00,2013-06-23 20:58:00,
2013-06-23 16:00:00,92.0,63.5,29.57,SSE,157,9.0,19.0,39,0.00,,SKC,0.00,954.00,VWS V14.01,2013-06-23 21:00:00,
2013-06-23 16:03:00,92.1,63.6,29.57,SSE,165,8.0,12.0,39,0.00,,---,0.00,895.00,VWS V14.00,2013-06-23 21:03:00,
2013-06-23 16:08:00,92.4,62.4,29.56,SE,124,12.0,21.0,37,0.00,,---,0.00,944.00,VWS V14.00,2013-06-23 21:08:00,
2013-06-23 16:10:00,92.0,62.8,29.56,SE,131,5.0,21.0,38,0.00,,SKC,0.00,921.00,VWS V14.01,2013-06-23 21:10:00,
2013-06-23 16:12:00,92.1,63.6,29.56,SE,126,6.0,8.0,39,0.00,,---,0.00,904.00,VWS V14.00,2013-06-23 21:12:00,
2013-06-23 16:17:00,92.4,62.4,29.56,SE,130,17.0,19.0,37,0.00,,---,0.00,838.00,VWS V14.00,2013-06-23 21:17:00,
2013-06-23 16:20:00,92.0,62.8,29.56,SE,143,9.0,22.0,38,0.00,,SKC,0.00,838.00,VWS V14.01,2013-06-23 21:20:00,
2013-06-23 16:22:00,91.9,62.7,29.56,SSE,163,8.0,12.0,38,0.00,,---,0.00,599.00,VWS V14.00,2013-06-23 21:22:00,
2013-06-23 16:27:00,91.9,61.9,29.56,SSE,150,8.0,14.0,37,0.00,,---,0.00,473.00,VWS V14.00,2013-06-23 21:27:00,
2013-06-23 16:30:00,91.5,62.3,29.56,ESE,123,14.0,19.0,38,0.00,,SKC,0.00,534.00,VWS V14.01,2013-06-23 21:30:00,
2013-06-23 16:32:00,91.4,62.2,29.56,ESE,122,8.0,15.0,38,0.00,,---,0.00,543.00,VWS V14.00,2013-06-23 21:32:00,
2013-06-23 16:37:00,91.0,62.6,29.55,ESE,122,14.0,21.0,39,0.00,,---,0.00,645.00,VWS V14.00,2013-06-23 21:37:00,
2013-06-23 16:40:00,91.0,63.3,29.55,ESE,120,11.0,21.0,40,0.00,,SKC,0.00,759.00,VWS V14.01,2013-06-23 21:40:00,
2013-06-23 16:42:00,91.1,63.4,29.56,ESE,121,9.0,18.0,40,0.00,,---,0.00,775.00,VWS V14.00,2013-06-23 21:42:00,
2013-06-23 16:47:00,91.0,64.1,29.56,SE,126,12.0,24.0,41,0.00,,---,0.00,316.00,VWS V14.00,2013-06-23 21:47:00,
2013-06-23 16:50:00,90.6,63.7,29.55,SSE,151,12.0,24.0,41,0.00,,SKC,0.00,330.00,VWS V14.01,2013-06-23 21:50:00,
2013-06-23 16:52:00,90.5,63.6,29.56,ESE,123,12.0,15.0,41,0.00,,---,0.00,329.00,VWS V14.00,2013-06-23 21:52:00,
2013-06-23 16:57:00,90.0,61.7,29.55,SE,144,6.0,18.0,39,0.00,,---,0.00,315.00,VWS V14.00,2013-06-23 21:57:00,
2013-06-23 17:00:00,89.7,61.5,29.55,ESE,103,14.0,18.0,39,0.00,,SKC,0.00,304.00,VWS V14.01,2013-06-23 22:00:00,
2013-06-23 17:02:00,89.6,61.4,29.55,SE,139,9.0,12.0,39,0.00,,---,0.00,272.00,VWS V14.00,2013-06-23 22:02:00,
2013-06-23 17:07:00,89.3,61.1,29.55,SSE,158,9.0,17.0,39,0.00,,---,0.00,304.00,VWS V14.00,2013-06-23 22:07:00,
2013-06-23 17:10:00,89.3,62.5,29.55,East,93,14.0,20.0,41,0.00,,SKC,0.00,309.00,VWS V14.01,2013-06-23 22:10:00,
2013-06-23 17:12:00,89.3,62.5,29.55,SE,138,7.0,16.0,41,0.00,,---,0.00,320.00,VWS V14.00,2013-06-23 22:12:00,
2013-06-23 17:17:00,89.3,63.2,29.55,SE,138,8.0,20.0,42,0.00,,---,0.00,350.00,VWS V14.00,2013-06-23 22:17:00,
2013-06-23 17:20:00,89.2,63.1,29.55,ESE,116,13.0,20.0,42,0.00,,SKC,0.00,338.00,VWS V14.01,2013-06-23 22:20:00,
2013-06-23 17:22:00,89.2,63.1,29.55,SE,132,9.0,18.0,42,0.00,,---,0.00,355.00,VWS V14.00,2013-06-23 22:22:00,
2013-06-23 17:27:00,89.1,62.4,29.55,SE,126,8.0,21.0,41,0.00,,---,0.00,438.00,VWS V14.00,2013-06-23 22:27:00,
2013-06-23 17:30:00,89.2,63.1,29.54,SE,140,12.0,21.0,42,0.00,,SKC,0.00,492.00,VWS V14.01,2013-06-23 22:30:00,
2013-06-23 17:32:00,89.2,62.4,29.54,SSE,148,17.0,20.0,41,0.00,,---,0.00,517.00,VWS V14.00,2013-06-23 22:32:00,
2013-06-23 17:37:00,89.5,63.4,29.55,SE,130,12.0,23.0,42,0.00,,---,0.00,404.00,VWS V14.00,2013-06-23 22:37:00,
2013-06-23 17:40:00,89.6,64.2,29.54,SE,142,7.0,23.0,43,0.00,,SKC,0.00,448.00,VWS V14.01,2013-06-23 22:40:00,
2013-06-23 17:42:00,89.6,64.2,29.54,SE,137,5.0,18.0,43,0.00,,---,0.00,446.00,VWS V14.00,2013-06-23 22:42:00,
2013-06-23 17:47:00,89.7,64.9,29.54,SE,145,7.0,18.0,44,0.00,,---,0.00,577.00,VWS V14.00,2013-06-23 22:47:00,
2013-06-23 17:50:00,90.1,65.3,29.54,SE,136,11.0,18.0,44,0.00,,SKC,0.00,610.00,VWS V14.01,2013-06-23 22:50:00,
2013-06-23 17:52:00,90.2,64.7,29.54,SE,134,9.0,16.0,43,0.00,,---,0.00,599.00,VWS V14.00,2013-06-23 22:52:00,
2013-06-23 17:57:00,90.3,64.1,29.54,SE,140,10.0,19.0,42,0.00,,---,0.00,606.00,VWS V14.00,2013-06-23 22:57:00,
2013-06-23 18:00:00,90.4,64.9,29.54,SE,128,7.0,21.0,43,0.00,,SKC,0.00,612.00,VWS V14.01,2013-06-23 23:00:00,
2013-06-23 18:02:00,90.4,64.9,29.54,SE,134,11.0,11.0,43,0.00,,---,0.00,589.00,VWS V14.00,2013-06-23 23:02:00,
2013-06-23 18:07:00,90.6,63.7,29.53,SE,132,12.0,22.0,41,0.00,,---,0.00,591.00,VWS V14.00,2013-06-23 23:07:00,
2013-06-23 18:10:00,90.6,63.0,29.53,SSE,150,12.0,22.0,40,0.00,,SKC,0.00,577.00,VWS V14.01,2013-06-23 23:10:00,
2013-06-23 18:12:00,90.5,63.6,29.53,South,178,11.0,13.0,41,0.00,,---,0.00,501.00,VWS V14.00,2013-06-23 23:12:00,
2013-06-23 18:17:00,90.4,63.5,29.53,SE,126,15.0,24.0,41,0.00,,---,0.00,466.00,VWS V14.00,2013-06-23 23:17:00,
2013-06-23 18:20:00,90.2,63.3,29.53,SE,134,8.0,24.0,41,0.00,,SKC,0.00,404.00,VWS V14.01,2013-06-23 23:20:00,
2013-06-23 18:22:00,90.2,63.3,29.53,ESE,109,16.0,16.0,41,0.00,,---,0.00,413.00,VWS V14.00,2013-06-23 23:22:00,
2013-06-23 18:27:00,90.1,62.5,29.53,SE,126,9.0,27.0,40,0.00,,---,0.00,339.00,VWS V14.00,2013-06-23 23:27:00,
2013-06-23 18:30:00,89.9,62.4,29.53,SSE,163,4.0,27.0,40,0.00,,SKC,0.00,251.00,VWS V14.01,2013-06-23 23:30:00,
2013-06-23 18:32:00,89.8,62.3,29.53,SE,128,13.0,15.0,40,0.00,,---,0.00,264.00,VWS V14.00,2013-06-23 23:32:00,
2013-06-23 18:37:00,89.6,62.1,29.54,SE,146,11.0,19.0,40,0.00,,---,0.00,320.00,VWS V14.00,2013-06-23 23:37:00,
2013-06-23 18:40:00,89.6,62.8,29.54,SSE,156,11.0,19.0,41,0.00,,SKC,0.00,388.00,VWS V14.01,2013-06-23 23:40:00,
2013-06-23 18:42:00,89.6,62.8,29.54,SSE,161,7.0,9.0,41,0.00,,---,0.00,388.00,VWS V14.00,2013-06-23 23:42:00,
2013-06-23 18:47:00,89.6,62.8,29.54,South,184,8.0,19.0,41,0.00,,---,0.00,223.00,VWS V14.00,2013-06-23 23:47:00,
2013-06-23 18:50:00,89.4,62.6,29.54,South,175,9.0,19.0,41,0.00,,SKC,0.00,227.00,VWS V14.01,2013-06-23 23:50:00,
2013-06-23 18:52:00,89.3,62.5,29.54,SE,146,11.0,16.0,41,0.00,,---,0.00,211.00,VWS V14.00,2013-06-23 23:52:00,
2013-06-23 18:57:00,89.0,63.0,29.54,SE,137,7.0,16.0,42,0.00,,---,0.00,134.00,VWS V14.00,2013-06-23 23:57:00,
2013-06-23 19:00:00,88.8,62.8,29.54,ESE,111,11.0,17.0,42,0.00,,SKC,0.00,127.00,VWS V14.01,2013-06-24 00:00:00,
2013-06-23 19:02:00,88.7,62.7,29.54,SSE,149,5.0,14.0,42,0.00,,---,0.00,125.00,VWS V14.00,2013-06-24 00:02:00,
2013-06-23 19:07:00,88.3,63.7,29.55,SE,140,10.0,15.0,44,0.00,,---,0.00,116.00,VWS V14.00,2013-06-24 00:07:00,
2013-06-23 19:10:00,88.1,63.5,29.55,SSE,153,8.0,15.0,44,0.00,,SKC,0.00,113.00,VWS V14.01,2013-06-24 00:10:00,
2013-06-23 19:12:00,88.1,63.5,29.55,SE,146,11.0,13.0,44,0.00,,---,0.00,111.00,VWS V14.00,2013-06-24 00:12:00,
2013-06-23 19:17:00,87.9,63.9,29.55,SE,146,4.0,13.0,45,0.00,,---,0.00,84.00,VWS V14.00,2013-06-24 00:17:00,
2013-06-23 19:20:00,87.8,63.8,29.55,ESE,111,7.0,18.0,45,0.00,,SKC,0.00,77.00,VWS V14.01,2013-06-24 00:20:00,
2013-06-23 19:22:00,87.8,64.5,29.55,SE,140,8.0,13.0,46,0.00,,---,0.00,76.00,VWS V14.00,2013-06-24 00:22:00,
2013-06-23 19:27:00,87.5,64.2,29.55,SE,142,7.0,13.0,46,0.00,,---,0.00,74.00,VWS V14.00,2013-06-24 00:27:00,
2013-06-23 19:30:00,87.3,64.6,29.55,SSE,159,8.0,15.0,47,0.00,,SKC,0.00,84.00,VWS V14.01,2013-06-24 00:30:00,
2013-06-23 19:32:00,87.3,64.6,29.55,SSE,160,6.0,9.0,47,0.00,,---,0.00,97.00,VWS V14.00,2013-06-24 00:32:00,
2013-06-23 19:37:00,87.2,64.5,29.55,SSE,151,7.0,12.0,47,0.00,,---,0.00,181.00,VWS V14.00,2013-06-24 00:37:00,
2013-06-23 19:40:00,87.3,64.6,29.55,SE,140,5.0,12.0,47,0.00,,SKC,0.00,167.00,VWS V14.01,2013-06-24 00:40:00,
2013-06-23 19:42:00,87.3,64.6,29.56,SE,138,5.0,6.0,47,0.00,,---,0.00,167.00,VWS V14.00,2013-06-24 00:42:00,
2013-06-23 19:47:00,87.4,64.7,29.56,SE,134,7.0,13.0,47,0.00,,---,0.00,155.00,VWS V14.00,2013-06-24 00:47:00,
2013-06-23 19:50:00,87.4,64.7,29.55,SE,142,9.0,14.0,47,0.00,,SKC,0.00,141.00,VWS V14.01,2013-06-24 00:50:00,
2013-06-23 19:52:00,87.5,64.8,29.55,SE,131,6.0,11.0,47,0.00,,---,0.00,134.00,VWS V14.00,2013-06-24 00:52:00,
2013-06-23 19:57:00,87.4,64.7,29.55,SE,142,5.0,15.0,47,0.00,,---,0.00,114.00,VWS V14.00,2013-06-24 00:57:00,
2013-06-23 20:00:00,87.3,64.6,29.55,SE,141,5.0,15.0,47,0.00,,SKC,0.00,95.00,VWS V14.01,2013-06-24 01:00:00,
2013-06-23 20:02:00,87.3,64.6,29.55,SSE,148,5.0,9.0,47,0.00,,---,0.00,91.00,VWS V14.00,2013-06-24 01:02:00,
2013-06-23 20:07:00,87.2,64.5,29.55,ESE,107,13.0,13.0,47,0.00,,---,0.00,74.00,VWS V14.00,2013-06-24 01:07:00,
2013-06-23 20:10:00,87.0,64.3,29.55,SE,142,2.0,13.0,47,0.00,,SKC,0.00,58.00,VWS V14.01,2013-06-24 01:10:00,
2013-06-23 20:12:00,87.0,64.3,29.55,ESE,117,8.0,8.0,47,0.00,,---,0.00,58.00,VWS V14.00,2013-06-24 01:12:00,
2013-06-23 20:17:00,86.8,64.8,29.55,SE,128,8.0,11.0,48,0.00,,---,0.00,46.00,VWS V14.00,2013-06-24 01:17:00,
2013-06-23 20:20:00,86.7,64.7,29.55,SE,130,11.0,11.0,48,0.00,,SKC,0.00,39.00,VWS V14.01,2013-06-24 01:20:00,
2013-06-23 20:22:00,86.6,64.6,29.55,SE,132,6.0,12.0,48,0.00,,---,0.00,39.00,VWS V14.00,2013-06-24 01:22:00,
2013-06-23 20:27:00,86.5,64.5,29.56,SE,134,2.0,12.0,48,0.00,,---,0.00,33.00,VWS V14.00,2013-06-24 01:27:00,
2013-06-23 20:30:00,86.4,64.4,29.56,SE,139,9.0,12.0,48,0.00,,SKC,0.00,30.00,VWS V14.01,2013-06-24 01:30:00,
2013-06-23 20:32:00,86.3,64.3,29.56,SE,139,5.0,9.0,48,0.00,,---,0.00,30.00,VWS V14.00,2013-06-24 01:32:00,
2013-06-23 20:37:00,86.1,64.1,29.56,SE,145,6.0,17.0,48,0.00,,---,0.00,25.00,VWS V14.00,2013-06-24 01:37:00,
2013-06-23 20:40:00,86.0,64.0,29.56,SE,142,9.0,17.0,48,0.00,,SKC,0.00,19.00,VWS V14.01,2013-06-24 01:40:00,
2013-06-23 20:42:00,86.0,64.0,29.56,SE,142,5.0,8.0,48,0.00,,---,0.00,18.00,VWS V14.00,2013-06-24 01:42:00,
2013-06-23 20:47:00,85.9,64.0,29.56,SE,142,5.0,10.0,48,0.00,,---,0.00,5.00,VWS V14.00,2013-06-24 01:47:00,
2013-06-23 20:50:00,85.7,64.4,29.56,SE,128,9.0,12.0,49,0.00,,SKC,0.00,0.00,VWS V14.01,2013-06-24 01:50:00,
2013-06-23 20:52:00,85.6,64.3,29.56,ESE,112,7.0,9.0,49,0.00,,---,0.00,0.00,VWS V14.00,2013-06-24 01:52:00,
2013-06-23 20:57:00,85.4,64.7,29.56,SE,129,7.0,13.0,50,0.00,,---,0.00,0.00,VWS V14.00,2013-06-24 01:57:00,
2013-06-23 21:00:00,85.2,64.5,29.55,SE,126,6.0,15.0,50,0.00,,SKC,0.00,0.00,VWS V14.01,2013-06-24 02:00:00,
2013-06-23 21:02:00,85.2,64.5,29.56,SE,129,11.0,11.0,50,0.00,,---,0.00,0.00,VWS V14.00,2013-06-24 02:02:00,
2013-06-23 21:07:00,85.0,64.3,29.56,ESE,113,6.0,13.0,50,0.00,,---,0.00,0.00,VWS V14.00,2013-06-24 02:07:00,
2013-06-23 21:10:00,84.8,64.7,29.56,SE,136,5.0,13.0,51,0.00,,SKC,0.00,0.00,VWS V14.01,2013-06-24 02:10:00,
2013-06-23 21:12:00,84.7,64.6,29.56,SE,140,4.0,7.0,51,0.00,,---,0.00,0.00,VWS V14.00,2013-06-24 02:12:00,
2013-06-23 21:17:00,84.5,63.8,29.56,SE,140,9.0,15.0,50,0.00,,---,0.00,0.00,VWS V14.00,2013-06-24 02:17:00,
2013-06-23 21:20:00,84.4,63.8,29.56,ESE,117,5.0,18.0,50,0.00,,SKC,0.00,0.00,VWS V14.01,2013-06-24 02:20:00,
2013-06-23 21:22:00,84.3,63.7,29.57,SE,144,7.0,11.0,50,0.00,,---,0.00,0.00,VWS V14.00,2013-06-24 02:22:00,
2013-06-23 21:27:00,84.1,63.5,29.56,SE,128,9.0,14.0,50,0.00,,---,0.00,0.00,VWS V14.00,2013-06-24 02:27:00,
2013-06-23 21:30:00,84.0,63.4,29.57,SE,135,7.0,14.0,50,0.00,,SKC,0.00,0.00,VWS V14.01,2013-06-24 02:30:00,
2013-06-23 21:32:00,84.0,63.4,29.57,SE,135,5.0,8.0,50,0.00,,---,0.00,0.00,VWS V14.00,2013-06-24 02:32:00,
2013-06-23 21:37:00,83.8,63.2,29.57,SE,126,6.0,14.0,50,0.00,,---,0.00,0.00,VWS V14.00,2013-06-24 02:37:00,
2013-06-23 21:40:00,83.6,62.4,29.57,ESE,119,4.0,14.0,49,0.00,,SKC,0.00,0.00,VWS V14.01,2013-06-24 02:40:00,
2013-06-23 21:42:00,83.6,62.4,29.57,ESE,121,5.0,8.0,49,0.00,,---,0.00,0.00,VWS V14.00,2013-06-24 02:42:00,
2013-06-23 21:47:00,83.4,62.3,29.58,ESE,113,6.0,13.0,49,0.00,,---,0.00,0.00,VWS V14.00,2013-06-24 02:47:00,
2013-06-23 21:50:00,83.3,61.6,29.58,ESE,121,5.0,13.0,48,0.00,,SKC,0.00,0.00,VWS V14.01,2013-06-24 02:50:00,
2013-06-23 21:52:00,83.2,61.5,29.58,SE,124,6.0,9.0,48,0.00,,---,0.00,0.00,VWS V14.00,2013-06-24 02:52:00,
2013-06-23 21:57:00,83.0,61.3,29.58,ESE,123,7.0,11.0,48,0.00,,---,0.00,0.00,VWS V14.00,2013-06-24 02:57:00,
2013-06-23 22:00:00,82.9,61.2,29.58,SE,142,5.0,14.0,48,0.00,,SKC,0.00,0.00,VWS V14.01,2013-06-24 03:00:00,
2013-06-23 22:02:00,82.9,61.2,29.58,SE,142,4.0,6.0,48,0.00,,---,0.00,0.00,VWS V14.00,2013-06-24 03:02:00,
2013-06-23 22:07:00,82.7,61.0,29.58,SE,131,8.0,9.0,48,0.00,,---,0.00,0.00,VWS V14.00,2013-06-24 03:07:00,
2013-06-23 22:10:00,82.6,60.9,29.59,ESE,123,5.0,11.0,48,0.00,,SKC,0.00,0.00,VWS V14.01,2013-06-24 03:10:00,
2013-06-23 22:12:00,82.6,60.9,29.59,ESE,123,6.0,9.0,48,0.00,,---,0.00,0.00,VWS V14.00,2013-06-24 03:12:00,
2013-06-23 22:17:00,82.4,60.8,29.59,ESE,116,7.0,11.0,48,0.00,,---,0.00,0.00,VWS V14.00,2013-06-24 03:17:00,
2013-06-23 22:20:00,82.3,60.7,29.59,SE,138,6.0,14.0,48,0.00,,SKC,0.00,0.00,VWS V14.01,2013-06-24 03:20:00,
2013-06-23 22:22:00,82.3,60.7,29.59,SE,138,6.0,8.0,48,0.00,,---,0.00,0.00,VWS V14.00,2013-06-24 03:22:00,
2013-06-23 22:27:00,82.2,61.2,29.60,SE,130,4.0,12.0,49,0.00,,---,0.00,0.00,VWS V14.00,2013-06-24 03:27:00,
2013-06-23 22:30:00,82.1,61.1,29.60,SE,138,5.0,12.0,49,0.00,,SKC,0.00,0.00,VWS V14.01,2013-06-24 03:30:00,
2013-06-23 22:32:00,82.1,61.1,29.60,SE,140,9.0,10.0,49,0.00,,---,0.00,0.00,VWS V14.00,2013-06-24 03:32:00,
2013-06-23 22:37:00,81.9,62.0,29.60,SE,135,6.0,13.0,51,0.00,,---,0.00,0.00,VWS V14.00,2013-06-24 03:37:00,
2013-06-23 22:40:00,81.8,62.5,29.60,SE,144,9.0,13.0,52,0.00,,SKC,0.00,0.00,VWS V14.01,2013-06-24 03:40:00,
2013-06-23 22:42:00,81.8,62.5,29.60,SE,143,9.0,9.0,52,0.00,,---,0.00,0.00,VWS V14.00,2013-06-24 03:42:00,
2013-06-23 22:47:00,81.6,62.8,29.60,SE,127,7.0,12.0,53,0.00,,---,0.00,0.00,VWS V14.00,2013-06-24 03:47:00,
2013-06-23 22:50:00,81.5,63.3,29.60,SE,127,6.0,14.0,54,0.00,,SKC,0.00,0.00,VWS V14.01,2013-06-24 03:50:00,
2013-06-23 22:52:00,81.4,63.2,29.61,ESE,117,9.0,9.0,54,0.00,,---,0.00,0.00,VWS V14.00,2013-06-24 03:52:00,
2013-06-23 22:57:00,81.3,63.1,29.61,East,99,7.0,12.0,54,0.00,,---,0.00,0.00,VWS V14.00,2013-06-24 03:57:00,
2013-06-23 23:00:00,81.2,63.5,29.61,SE,135,2.0,12.0,55,0.00,,SKC,0.00,0.00,VWS V14.01,2013-06-24 04:00:00,
2013-06-23 23:01:00,81.2,63.5,29.61,SE,135,8.0,12.0,55,0.00,,---,0.00,0.00,VWS V14.00,2013-06-24 04:01:00,
2013-06-23 23:06:00,81.0,63.3,29.60,ESE,123,9.0,10.0,55,0.00,,---,0.00,0.00,VWS V14.00,2013-06-24 04:06:00,
2013-06-23 23:10:00,80.8,63.1,29.61,SE,126,8.0,12.0,55,0.00,,SKC,0.00,0.00,VWS V14.01,2013-06-24 04:10:00,
2013-06-23 23:11:00,80.8,63.1,29.61,ESE,123,6.0,12.0,55,0.00,,---,0.00,0.00,VWS V14.00,2013-06-24 04:11:00,
2013-06-23 23:16:00,80.6,63.5,29.61,SE,126,11.0,11.0,56,0.00,,---,0.00,0.00,VWS V14.00,2013-06-24 04:16:00,
2013-06-23 23:20:00,80.4,64.3,29.61,SE,127,5.0,13.0,58,0.00,,SKC,0.00,0.00,VWS V14.01,2013-06-24 04:20:00,
2013-06-23 23:21:00,80.4,64.3,29.61,SE,138,9.0,13.0,58,0.00,,---,0.00,0.00,VWS V14.00,2013-06-24 04:21:00,
2013-06-23 23:26:00,80.3,64.7,29.61,ESE,117,5.0,15.0,59,0.00,,---,0.00,0.00,VWS V14.00,2013-06-24 04:26:00,
2013-06-23 23:30:00,80.1,65.0,29.61,SE,126,6.0,15.0,60,0.00,,SKC,0.00,0.00,VWS V14.01,2013-06-24 04:30:00,
2013-06-23 23:31:00,80.1,65.0,29.61,SE,126,13.0,15.0,60,0.00,,---,0.00,0.00,VWS V14.00,2013-06-24 04:31:00,
2013-06-23 23:36:00,80.0,65.4,29.61,ESE,123,5.0,12.0,61,0.00,,---,0.00,0.00,VWS V14.00,2013-06-24 04:36:00,
2013-06-23 23:40:00,79.8,65.6,29.61,ESE,119,5.0,12.0,62,0.00,,SKC,0.00,0.00,VWS V14.01,2013-06-24 04:40:00,
2013-06-23 23:41:00,79.8,65.6,29.61,ESE,119,8.0,12.0,62,0.00,,---,0.00,0.00,VWS V14.00,2013-06-24 04:41:00,
2013-06-23 23:46:00,79.7,66.0,29.61,ESE,106,8.0,17.0,63,0.00,,---,0.00,0.00,VWS V14.00,2013-06-24 04:46:00,
2013-06-23 23:50:00,79.5,66.3,29.62,SE,145,5.0,17.0,64,0.00,,SKC,0.00,0.00,VWS V14.01,2013-06-24 04:50:00,
2013-06-23 23:51:00,79.5,66.3,29.62,SE,145,2.0,17.0,64,0.00,,---,0.00,0.00,VWS V14.00,2013-06-24 04:51:00,
2013-06-23 23:56:00,79.4,66.6,29.61,SE,130,8.0,19.0,65,0.00,,---,0.00,0.00,VWS V14.00,2013-06-24 04:56:00,